User: anonymous   Login
Location: Unspecified
(0.0000°N, 0.0000°E)
Time: 04:12:28
(UTC+00:00)
Language:

STARLINK-2692 - Orbit

View from above orbital plane
View from above orbital plane
View from above satellite
View from above satellite

Ground track
Ground track

The orbit is defined by the following mean orbital elements,

1 48434U          26145.41914171 +.00000000 +00000-0 +19656-4 0 00003
2 48434  53.1588 155.9026 0001163  85.7839 274.3295 15.31698886    01
Epoch (UTC): 25 May 2026 10:03:33
Eccentricity: 0.0001163
inclination: 53.1588°
perigee height: 470 km
apogee height: 472 km
right ascension of ascending node: 155.9026°
argument of perigee: 85.7839°
revolutions per day: 15.31698886
mean anomaly at epoch: 274.3295°

The dashed part of the orbit path shows where the satellite is in the earth's shadow,  

DLR